owner,sensor,date,latitude,longitude,vertical_datum,sea_water_temperature,qcFlag
BP,ioos:station:wmo:42374:1,2021-03-01T00:11:00Z,28.8662,-88.0563,2.2,20.1,11111222
BP,ioos:station:wmo:42374:1,2021-03-01T00:31:00Z,28.8662,-88.0563,2.4,19.9,11111222
BP,ioos:station:wmo:42374:1,2021-03-01T00:51:00Z,28.8662,-88.0563,2.4,19.7,11111222
BP,ioos:station:wmo:42374:1,2021-03-01T01:11:00Z,28.8662,-88.0563,2.1,19.8,11111222
BP,ioos:station:wmo:42374:1,2021-03-01T01:31:00Z,28.8662,-88.0563,2.3,19.7,11111222
BP,ioos:station:wmo:42374:1,2021-03-01T01:51:00Z,28.8662,-88.0563,2.2,19.9,11111222
BP,ioos:station:wmo:42374:1,2021-03-01T02:11:00Z,28.8662,-88.0563,2.5,19.9,11111222
BP,ioos:station:wmo:42374:1,2021-03-01T02:31:00Z,28.8662,-88.0563,2.1,19.9,11111222
BP,ioos:station:wmo:42374:1,2021-03-01T02:51:00Z,28.8662,-88.0563,2.2,20.2,11111222
BP,ioos:station:wmo:42374:1,2021-03-01T03:11:00Z,28.8662,-88.0563,2.2,20.2,11111222
BP,ioos:station:wmo:42374:1,2021-03-01T03:31:00Z,28.8662,-88.0563,2.2,20.1,11111222
BP,ioos:station:wmo:42374:1,2021-03-01T03:51:00Z,28.8662,-88.0563,2.3,20.0,11111222
BP,ioos:station:wmo:42374:1,2021-03-01T04:11:00Z,28.8662,-88.0563,2.2,19.9,11111222
BP,ioos:station:wmo:42374:1,2021-03-01T04:31:00Z,28.8662,-88.0563,2.3,19.9,11111222
BP,ioos:station:wmo:42374:1,2021-03-01T04:51:00Z,28.8662,-88.0563,2.2,19.7,11111222
BP,ioos:station:wmo:42374:1,2021-03-01T05:11:00Z,28.8662,-88.0563,2.1,19.8,11111222
BP,ioos:station:wmo:42374:1,2021-03-01T05:31:00Z,28.8662,-88.0563,2.3,19.7,11111222
BP,ioos:station:wmo:42374:1,2021-03-01T05:51:00Z,28.8662,-88.0563,2.2,19.7,11111222
BP,ioos:station:wmo:42374:1,2021-03-01T06:11:00Z,28.8662,-88.0563,2.2,19.7,11111222
BP,ioos:station:wmo:42374:1,2021-03-01T06:31:00Z,28.8662,-88.0563,1.9,19.4,11111222
BP,ioos:station:wmo:42374:1,2021-03-01T06:51:00Z,28.8662,-88.0563,1.9,19.1,11111222
BP,ioos:station:wmo:42374:1,2021-03-01T07:11:00Z,28.8662,-88.0563,1.9,19.3,11111222
BP,ioos:station:wmo:42374:1,2021-03-01T07:31:00Z,28.8662,-88.0563,1.9,19.1,11111222
BP,ioos:station:wmo:42374:1,2021-03-01T07:51:00Z,28.8662,-88.0563,1.8,19.2,11111222
BP,ioos:station:wmo:42374:1,2021-03-01T08:11:00Z,28.8662,-88.0563,1.9,19.3,11111222
BP,ioos:station:wmo:42374:1,2021-03-01T08:31:00Z,28.8662,-88.0563,2.0,19.2,11111222
BP,ioos:station:wmo:42374:1,2021-03-01T08:51:00Z,28.8662,-88.0563,1.8,19.1,11111222
BP,ioos:station:wmo:42374:1,2021-03-01T09:11:00Z,28.8662,-88.0563,2.0,19.4,11111222
BP,ioos:station:wmo:42374:1,2021-03-01T09:31:00Z,28.8662,-88.0563,2.0,19.5,11111222
BP,ioos:station:wmo:42374:1,2021-03-01T09:51:00Z,28.8662,-88.0563,1.9,19.5,11111222
BP,ioos:station:wmo:42374:1,2021-03-01T10:11:00Z,28.8662,-88.0563,2.1,19.5,11111222
BP,ioos:station:wmo:42374:1,2021-03-01T10:31:00Z,28.8662,-88.0563,2.0,19.4,11111222
BP,ioos:station:wmo:42374:1,2021-03-01T10:51:00Z,28.8662,-88.0563,2.0,19.5,11111222
BP,ioos:station:wmo:42374:1,2021-03-01T11:11:00Z,28.8662,-88.0563,2.3,19.6,11111222
BP,ioos:station:wmo:42374:1,2021-03-01T11:31:00Z,28.8662,-88.0563,2.3,19.6,11111222
BP,ioos:station:wmo:42374:1,2021-03-01T11:51:00Z,28.8662,-88.0563,2.2,19.9,11111222
BP,ioos:station:wmo:42374:1,2021-03-01T12:11:00Z,28.8662,-88.0563,2.2,20.0,11111222
BP,ioos:station:wmo:42374:1,2021-03-01T12:31:00Z,28.8662,-88.0563,2.3,20.1,11111222
BP,ioos:station:wmo:42374:1,2021-03-01T12:51:00Z,28.8662,-88.0563,2.2,20.1,11111222
BP,ioos:station:wmo:42374:1,2021-03-01T13:11:00Z,28.8662,-88.0563,2.3,20.1,11111222
BP,ioos:station:wmo:42374:1,2021-03-01T13:31:00Z,28.8662,-88.0563,2.3,20.2,11111222
BP,ioos:station:wmo:42374:1,2021-03-01T13:51:00Z,28.8662,-88.0563,2.3,20.2,11111222
BP,ioos:station:wmo:42374:1,2021-03-01T14:11:00Z,28.8662,-88.0563,2.3,20.2,11111222
BP,ioos:station:wmo:42374:1,2021-03-01T14:31:00Z,28.8662,-88.0563,2.2,20.1,11111222
BP,ioos:station:wmo:42374:1,2021-03-01T14:51:00Z,28.8662,-88.0563,2.2,20.2,11111222
BP,ioos:station:wmo:42374:1,2021-03-01T15:11:00Z,28.8662,-88.0563,2.3,20.4,11111222
BP,ioos:station:wmo:42374:1,2021-03-01T15:31:00Z,28.8662,-88.0563,2.3,20.5,11111222
BP,ioos:station:wmo:42374:1,2021-03-01T15:51:00Z,28.8662,-88.0563,2.1,20.7,11111222
BP,ioos:station:wmo:42374:1,2021-03-01T16:11:00Z,28.8662,-88.0563,2.2,20.7,11111222
BP,ioos:station:wmo:42374:1,2021-03-01T16:31:00Z,28.8662,-88.0563,2.1,20.7,11111222
BP,ioos:station:wmo:42374:1,2021-03-01T16:51:00Z,28.8662,-88.0563,2.2,20.6,11111222
BP,ioos:station:wmo:42374:1,2021-03-01T17:11:00Z,28.8662,-88.0563,2.2,20.6,11111222
BP,ioos:station:wmo:42374:1,2021-03-01T17:31:00Z,28.8662,-88.0563,2.3,20.6,11111222
BP,ioos:station:wmo:42374:1,2021-03-01T17:51:00Z,28.8662,-88.0563,2.3,20.4,11111222
BP,ioos:station:wmo:42374:1,2021-03-01T18:11:00Z,28.8662,-88.0563,2.3,20.4,11111222
BP,ioos:station:wmo:42374:1,2021-03-01T18:50:00Z,28.8662,-88.0563,2.1,20.4,11111222
BP,ioos:station:wmo:42374:1,2021-03-01T19:10:00Z,28.8662,-88.0563,2.3,20.4,11111222
BP,ioos:station:wmo:42374:1,2021-03-01T19:30:00Z,28.8662,-88.0563,2.0,20.3,11111222
BP,ioos:station:wmo:42374:1,2021-03-01T19:50:00Z,28.8662,-88.0563,2.3,20.3,11111222
BP,ioos:station:wmo:42374:1,2021-03-01T20:10:00Z,28.8662,-88.0563,2.1,20.2,11111222
BP,ioos:station:wmo:42374:1,2021-03-01T20:30:00Z,28.8662,-88.0563,2.1,20.2,11111222
BP,ioos:station:wmo:42374:1,2021-03-01T20:50:00Z,28.8662,-88.0563,2.3,20.1,11111222
BP,ioos:station:wmo:42374:1,2021-03-01T21:10:00Z,28.8662,-88.0563,2.3,20.0,11111222
BP,ioos:station:wmo:42374:1,2021-03-01T21:30:00Z,28.8662,-88.0563,2.2,20.0,11111222
BP,ioos:station:wmo:42374:1,2021-03-01T21:50:00Z,28.8662,-88.0563,2.3,20.0,11111222
BP,ioos:station:wmo:42374:1,2021-03-01T22:10:00Z,28.8662,-88.0563,2.2,20.0,11111222
BP,ioos:station:wmo:42374:1,2021-03-01T22:30:00Z,28.8662,-88.0563,2.2,20.0,11111222
BP,ioos:station:wmo:42374:1,2021-03-01T22:50:00Z,28.8662,-88.0563,2.2,19.9,11111222
BP,ioos:station:wmo:42374:1,2021-03-01T23:10:00Z,28.8662,-88.0563,2.2,19.8,11111222
BP,ioos:station:wmo:42374:1,2021-03-01T23:30:00Z,28.8662,-88.0563,2.3,19.9,11111222
BP,ioos:station:wmo:42374:1,2021-03-01T23:50:00Z,28.8662,-88.0563,2.4,19.9,11111222
BP,ioos:station:wmo:42374:1,2021-03-02T00:10:00Z,28.8662,-88.0563,2.3,20.1,11111222
BP,ioos:station:wmo:42374:1,2021-03-02T00:30:00Z,28.8662,-88.0563,2.2,20.1,11111222
BP,ioos:station:wmo:42374:1,2021-03-02T00:50:00Z,28.8662,-88.0563,2.5,20.1,11111222
BP,ioos:station:wmo:42374:1,2021-03-02T01:10:00Z,28.8662,-88.0563,2.3,20.1,11111222
BP,ioos:station:wmo:42374:1,2021-03-02T01:30:00Z,28.8662,-88.0563,2.3,20.1,11111222
BP,ioos:station:wmo:42374:1,2021-03-02T01:50:00Z,28.8662,-88.0563,2.2,20.1,11111222
BP,ioos:station:wmo:42374:1,2021-03-02T02:10:00Z,28.8662,-88.0563,2.3,19.9,11111222
BP,ioos:station:wmo:42374:1,2021-03-02T02:30:00Z,28.8662,-88.0563,2.5,19.8,11111222
BP,ioos:station:wmo:42374:1,2021-03-02T02:50:00Z,28.8662,-88.0563,2.4,19.8,11111222
BP,ioos:station:wmo:42374:1,2021-03-02T03:10:00Z,28.8662,-88.0563,2.2,19.7,11111222
BP,ioos:station:wmo:42374:1,2021-03-02T03:30:00Z,28.8662,-88.0563,2.3,19.7,11111222
BP,ioos:station:wmo:42374:1,2021-03-02T03:50:00Z,28.8662,-88.0563,2.3,19.7,11111222
BP,ioos:station:wmo:42374:1,2021-03-02T04:10:00Z,28.8662,-88.0563,2.2,19.6,11111222
BP,ioos:station:wmo:42374:1,2021-03-02T04:30:00Z,28.8662,-88.0563,2.0,19.5,11111222
BP,ioos:station:wmo:42374:1,2021-03-02T04:50:00Z,28.8662,-88.0563,2.2,19.4,11111222
BP,ioos:station:wmo:42374:1,2021-03-02T05:10:00Z,28.8662,-88.0563,2.3,19.5,11111222
BP,ioos:station:wmo:42374:1,2021-03-02T05:30:00Z,28.8662,-88.0563,2.1,19.6,11111222
BP,ioos:station:wmo:42374:1,2021-03-02T05:50:00Z,28.8662,-88.0563,2.5,19.7,11111222
BP,ioos:station:wmo:42374:1,2021-03-02T06:10:00Z,28.8662,-88.0563,2.1,19.8,11111222
BP,ioos:station:wmo:42374:1,2021-03-02T06:30:00Z,28.8662,-88.0563,2.3,19.8,11111222
BP,ioos:station:wmo:42374:1,2021-03-02T06:50:00Z,28.8662,-88.0563,2.2,19.8,11111222
BP,ioos:station:wmo:42374:1,2021-03-02T07:10:00Z,28.8662,-88.0563,2.3,19.9,11111222
BP,ioos:station:wmo:42374:1,2021-03-02T07:30:00Z,28.8662,-88.0563,2.3,19.9,11111222
BP,ioos:station:wmo:42374:1,2021-03-02T07:50:00Z,28.8662,-88.0563,2.2,19.9,11111222
BP,ioos:station:wmo:42374:1,2021-03-02T08:10:00Z,28.8662,-88.0563,2.3,20.0,11111222
BP,ioos:station:wmo:42374:1,2021-03-02T08:30:00Z,28.8662,-88.0563,2.1,19.9,11111222
BP,ioos:station:wmo:42374:1,2021-03-02T08:50:00Z,28.8662,-88.0563,2.0,19.8,11111222
BP,ioos:station:wmo:42374:1,2021-03-02T09:10:00Z,28.8662,-88.0563,2.2,19.7,11111222
BP,ioos:station:wmo:42374:1,2021-03-02T09:30:00Z,28.8662,-88.0563,2.1,19.6,11111222
BP,ioos:station:wmo:42374:1,2021-03-02T09:50:00Z,28.8662,-88.0563,1.8,19.4,11111222
BP,ioos:station:wmo:42374:1,2021-03-02T10:10:00Z,28.8662,-88.0563,1.9,19.1,11111222
BP,ioos:station:wmo:42374:1,2021-03-02T10:30:00Z,28.8662,-88.0563,1.9,18.9,11111222
BP,ioos:station:wmo:42374:1,2021-03-02T10:50:00Z,28.8662,-88.0563,2.0,18.8,11111222
BP,ioos:station:wmo:42374:1,2021-03-02T11:10:00Z,28.8662,-88.0563,1.9,18.7,11111222
BP,ioos:station:wmo:42374:1,2021-03-02T11:30:00Z,28.8662,-88.0563,2.0,18.7,11111222
BP,ioos:station:wmo:42374:1,2021-03-02T11:50:00Z,28.8662,-88.0563,2.1,18.7,11111222
BP,ioos:station:wmo:42374:1,2021-03-02T12:10:00Z,28.8662,-88.0563,1.9,18.6,11111222
BP,ioos:station:wmo:42374:1,2021-03-02T12:30:00Z,28.8662,-88.0563,1.9,18.7,11111222
BP,ioos:station:wmo:42374:1,2021-03-02T12:50:00Z,28.8662,-88.0563,1.8,18.7,11111222
BP,ioos:station:wmo:42374:1,2021-03-02T13:10:00Z,28.8662,-88.0563,2.0,18.7,11111222
BP,ioos:station:wmo:42374:1,2021-03-02T13:30:00Z,28.8662,-88.0563,1.9,18.6,11111222
BP,ioos:station:wmo:42374:1,2021-03-02T13:50:00Z,28.8662,-88.0563,1.9,18.6,11111222
BP,ioos:station:wmo:42374:1,2021-03-02T14:10:00Z,28.8662,-88.0563,1.8,18.6,11111222
BP,ioos:station:wmo:42374:1,2021-03-02T14:30:00Z,28.8662,-88.0563,1.9,18.6,11111222
BP,ioos:station:wmo:42374:1,2021-03-02T14:50:00Z,28.8662,-88.0563,1.8,18.5,11111222
BP,ioos:station:wmo:42374:1,2021-03-02T15:10:00Z,28.8662,-88.0563,2.1,18.5,11111222
BP,ioos:station:wmo:42374:1,2021-03-02T15:30:00Z,28.8662,-88.0563,2.1,18.7,11111222
BP,ioos:station:wmo:42374:1,2021-03-02T15:50:00Z,28.8662,-88.0563,2.1,18.7,11111222
BP,ioos:station:wmo:42374:1,2021-03-02T16:10:00Z,28.8662,-88.0563,2.1,18.8,11111222
BP,ioos:station:wmo:42374:1,2021-03-02T16:30:00Z,28.8662,-88.0563,1.8,19.1,11111222
BP,ioos:station:wmo:42374:1,2021-03-02T16:50:00Z,28.8662,-88.0563,2.0,19.0,11111222
BP,ioos:station:wmo:42374:1,2021-03-02T17:10:00Z,28.8662,-88.0563,1.9,18.9,11111222
BP,ioos:station:wmo:42374:1,2021-03-02T17:30:00Z,28.8662,-88.0563,2.0,18.9,11111222
BP,ioos:station:wmo:42374:1,2021-03-02T17:50:00Z,28.8662,-88.0563,1.9,18.9,11111222
BP,ioos:station:wmo:42374:1,2021-03-02T18:10:00Z,28.8662,-88.0563,1.9,18.9,11111222
BP,ioos:station:wmo:42374:1,2021-03-02T18:30:00Z,28.8662,-88.0563,2.0,19.0,11111222
BP,ioos:station:wmo:42374:1,2021-03-02T18:50:00Z,28.8662,-88.0563,1.9,18.9,11111222
BP,ioos:station:wmo:42374:1,2021-03-02T19:10:00Z,28.8662,-88.0563,2.0,18.9,11111222
BP,ioos:station:wmo:42374:1,2021-03-02T19:30:00Z,28.8662,-88.0563,1.9,18.8,11111222
BP,ioos:station:wmo:42374:1,2021-03-02T19:50:00Z,28.8662,-88.0563,2.0,18.9,11111222
BP,ioos:station:wmo:42374:1,2021-03-02T20:10:00Z,28.8662,-88.0563,1.9,18.9,11111222
BP,ioos:station:wmo:42374:1,2021-03-02T20:30:00Z,28.8662,-88.0563,2.1,18.9,11111222
BP,ioos:station:wmo:42374:1,2021-03-02T20:50:00Z,28.8662,-88.0563,2.0,18.9,11111222
BP,ioos:station:wmo:42374:1,2021-03-02T21:10:00Z,28.8662,-88.0563,1.9,18.9,11111222
BP,ioos:station:wmo:42374:1,2021-03-02T21:30:00Z,28.8662,-88.0563,1.9,18.9,11111222
BP,ioos:station:wmo:42374:1,2021-03-02T21:50:00Z,28.8662,-88.0563,2.0,18.9,11111222
BP,ioos:station:wmo:42374:1,2021-03-02T22:10:00Z,28.8662,-88.0563,2.0,19.0,11111222
BP,ioos:station:wmo:42374:1,2021-03-02T22:30:00Z,28.8662,-88.0563,1.7,19.1,11111222
BP,ioos:station:wmo:42374:1,2021-03-02T22:50:00Z,28.8662,-88.0563,1.8,19.1,11111222
BP,ioos:station:wmo:42374:1,2021-03-02T23:10:00Z,28.8662,-88.0563,1.8,19.2,11111222
BP,ioos:station:wmo:42374:1,2021-03-02T23:30:00Z,28.8662,-88.0563,1.9,19.2,11111222
BP,ioos:station:wmo:42374:1,2021-03-02T23:50:00Z,28.8662,-88.0563,1.7,19.3,11111222
BP,ioos:station:wmo:42374:1,2021-03-03T00:10:00Z,28.8662,-88.0563,1.7,19.5,11111222
BP,ioos:station:wmo:42374:1,2021-03-03T00:30:00Z,28.8662,-88.0563,2.0,19.4,11111222
BP,ioos:station:wmo:42374:1,2021-03-03T00:50:00Z,28.8662,-88.0563,1.9,19.4,11111222
BP,ioos:station:wmo:42374:1,2021-03-03T01:10:00Z,28.8662,-88.0563,2.0,19.5,11111222
BP,ioos:station:wmo:42374:1,2021-03-03T01:30:00Z,28.8662,-88.0563,2.1,19.6,11111222
BP,ioos:station:wmo:42374:1,2021-03-03T01:50:00Z,28.8662,-88.0563,2.3,19.7,11111222
BP,ioos:station:wmo:42374:1,2021-03-03T02:10:00Z,28.8662,-88.0563,2.3,19.7,11111222
BP,ioos:station:wmo:42374:1,2021-03-03T02:30:00Z,28.8662,-88.0563,2.1,19.7,11111222
BP,ioos:station:wmo:42374:1,2021-03-03T02:50:00Z,28.8662,-88.0563,2.3,19.8,11111222
BP,ioos:station:wmo:42374:1,2021-03-03T03:10:00Z,28.8662,-88.0563,2.2,19.8,11111222
BP,ioos:station:wmo:42374:1,2021-03-03T03:30:00Z,28.8662,-88.0563,2.4,19.8,11111222
BP,ioos:station:wmo:42374:1,2021-03-03T03:50:00Z,28.8662,-88.0563,2.2,19.8,11111222
BP,ioos:station:wmo:42374:1,2021-03-03T04:10:00Z,28.8662,-88.0563,2.4,19.8,11111222
BP,ioos:station:wmo:42374:1,2021-03-03T04:30:00Z,28.8662,-88.0563,2.3,19.8,11111222
BP,ioos:station:wmo:42374:1,2021-03-03T04:50:00Z,28.8662,-88.0563,2.2,19.7,11111222
BP,ioos:station:wmo:42374:1,2021-03-03T05:10:00Z,28.8662,-88.0563,2.5,19.7,11111222
BP,ioos:station:wmo:42374:1,2021-03-03T05:30:00Z,28.8662,-88.0563,2.4,19.7,11111222
BP,ioos:station:wmo:42374:1,2021-03-03T05:50:00Z,28.8662,-88.0563,2.2,19.6,11111222
BP,ioos:station:wmo:42374:1,2021-03-03T06:10:00Z,28.8662,-88.0563,2.3,19.6,11111222
BP,ioos:station:wmo:42374:1,2021-03-03T06:30:00Z,28.8662,-88.0563,1.8,19.5,11111222
BP,ioos:station:wmo:42374:1,2021-03-03T06:50:00Z,28.8662,-88.0563,1.9,19.4,11111222
BP,ioos:station:wmo:42374:1,2021-03-03T07:10:00Z,28.8662,-88.0563,2.0,19.4,11111222
BP,ioos:station:wmo:42374:1,2021-03-03T07:30:00Z,28.8662,-88.0563,2.0,19.5,11111222
BP,ioos:station:wmo:42374:1,2021-03-03T07:50:00Z,28.8662,-88.0563,2.1,19.5,11111222
BP,ioos:station:wmo:42374:1,2021-03-03T08:10:00Z,28.8662,-88.0563,2.0,19.5,11111222
BP,ioos:station:wmo:42374:1,2021-03-03T08:30:00Z,28.8662,-88.0563,2.2,19.6,11111222
BP,ioos:station:wmo:42374:1,2021-03-03T08:50:00Z,28.8662,-88.0563,2.3,19.6,11111222
BP,ioos:station:wmo:42374:1,2021-03-03T09:10:00Z,28.8662,-88.0563,2.1,19.5,11111222
BP,ioos:station:wmo:42374:1,2021-03-03T09:30:00Z,28.8662,-88.0563,1.9,19.5,11111222
BP,ioos:station:wmo:42374:1,2021-03-03T09:50:00Z,28.8662,-88.0563,2.0,19.5,11111222
BP,ioos:station:wmo:42374:1,2021-03-03T10:10:00Z,28.8662,-88.0563,1.9,19.5,11111222
BP,ioos:station:wmo:42374:1,2021-03-03T10:30:00Z,28.8662,-88.0563,1.8,19.4,11111222
BP,ioos:station:wmo:42374:1,2021-03-03T10:50:00Z,28.8662,-88.0563,1.9,19.4,11111222
BP,ioos:station:wmo:42374:1,2021-03-03T11:10:00Z,28.8662,-88.0563,2.0,19.4,11111222
BP,ioos:station:wmo:42374:1,2021-03-03T11:30:00Z,28.8662,-88.0563,2.0,19.4,11111222
BP,ioos:station:wmo:42374:1,2021-03-03T11:50:00Z,28.8662,-88.0563,1.9,19.4,11111222
BP,ioos:station:wmo:42374:1,2021-03-03T12:10:00Z,28.8662,-88.0563,2.0,19.4,11111222
BP,ioos:station:wmo:42374:1,2021-03-03T12:30:00Z,28.8662,-88.0563,1.9,19.4,11111222
BP,ioos:station:wmo:42374:1,2021-03-03T12:50:00Z,28.8662,-88.0563,2.0,19.4,11111222
BP,ioos:station:wmo:42374:1,2021-03-03T13:10:00Z,28.8662,-88.0563,2.0,19.5,11111222
BP,ioos:station:wmo:42374:1,2021-03-03T13:30:00Z,28.8662,-88.0563,2.0,19.5,11111222
BP,ioos:station:wmo:42374:1,2021-03-03T13:50:00Z,28.8662,-88.0563,2.1,19.6,11111222
BP,ioos:station:wmo:42374:1,2021-03-03T14:10:00Z,28.8662,-88.0563,2.5,19.6,11111222
BP,ioos:station:wmo:42374:1,2021-03-03T14:30:00Z,28.8662,-88.0563,2.3,19.6,11111222
BP,ioos:station:wmo:42374:1,2021-03-03T14:50:00Z,28.8662,-88.0563,2.3,19.6,11111222
BP,ioos:station:wmo:42374:1,2021-03-03T15:10:00Z,28.8662,-88.0563,2.4,19.6,11111222
BP,ioos:station:wmo:42374:1,2021-03-03T15:30:00Z,28.8662,-88.0563,2.4,19.6,11111222
BP,ioos:station:wmo:42374:1,2021-03-03T15:50:00Z,28.8662,-88.0563,2.3,19.6,11111222
BP,ioos:station:wmo:42374:1,2021-03-03T16:10:00Z,28.8662,-88.0563,2.4,19.6,11111222
BP,ioos:station:wmo:42374:1,2021-03-03T16:30:00Z,28.8662,-88.0563,2.3,19.6,11111222
BP,ioos:station:wmo:42374:1,2021-03-03T16:50:00Z,28.8662,-88.0563,2.2,19.5,11111222
BP,ioos:station:wmo:42374:1,2021-03-03T17:10:00Z,28.8662,-88.0563,2.3,19.6,11111222
BP,ioos:station:wmo:42374:1,2021-03-03T17:30:00Z,28.8662,-88.0563,1.8,19.5,11111222
BP,ioos:station:wmo:42374:1,2021-03-03T17:50:00Z,28.8662,-88.0563,1.9,19.5,11111222
BP,ioos:station:wmo:42374:1,2021-03-03T18:10:00Z,28.8662,-88.0563,1.9,19.5,11111222
BP,ioos:station:wmo:42374:1,2021-03-03T18:30:00Z,28.8662,-88.0563,2.0,19.4,11111222
BP,ioos:station:wmo:42374:1,2021-03-03T18:50:00Z,28.8662,-88.0563,1.9,19.3,11111222
BP,ioos:station:wmo:42374:1,2021-03-03T19:10:00Z,28.8662,-88.0563,1.9,19.2,11111222
BP,ioos:station:wmo:42374:1,2021-03-03T19:30:00Z,28.8662,-88.0563,2.0,19.1,11111222
BP,ioos:station:wmo:42374:1,2021-03-03T19:50:00Z,28.8662,-88.0563,1.8,19.0,11111222
BP,ioos:station:wmo:42374:1,2021-03-03T20:10:00Z,28.8662,-88.0563,2.0,19.0,11111222
BP,ioos:station:wmo:42374:1,2021-03-03T20:30:00Z,28.8662,-88.0563,2.0,19.0,11111222
BP,ioos:station:wmo:42374:1,2021-03-03T20:50:00Z,28.8662,-88.0563,2.0,19.0,11111222
BP,ioos:station:wmo:42374:1,2021-03-03T21:10:00Z,28.8662,-88.0563,1.9,19.1,11111222
BP,ioos:station:wmo:42374:1,2021-03-03T21:30:00Z,28.8662,-88.0563,2.1,19.1,11111222
BP,ioos:station:wmo:42374:1,2021-03-03T21:50:00Z,28.8662,-88.0563,1.8,19.1,11111222
BP,ioos:station:wmo:42374:1,2021-03-03T22:10:00Z,28.8662,-88.0563,1.8,19.1,11111222
BP,ioos:station:wmo:42374:1,2021-03-03T22:30:00Z,28.8662,-88.0563,1.9,19.0,11111222
BP,ioos:station:wmo:42374:1,2021-03-03T22:50:00Z,28.8662,-88.0563,1.7,19.0,11111222
BP,ioos:station:wmo:42374:1,2021-03-03T23:10:00Z,28.8662,-88.0563,1.9,19.0,11111222
BP,ioos:station:wmo:42374:1,2021-03-03T23:30:00Z,28.8662,-88.0563,1.8,19.0,11111222
BP,ioos:station:wmo:42374:1,2021-03-03T23:50:00Z,28.8662,-88.0563,1.7,18.9,11111222
BP,ioos:station:wmo:42374:1,2021-03-04T00:10:00Z,28.8662,-88.0563,1.8,19.0,11111222
BP,ioos:station:wmo:42374:1,2021-03-04T00:30:00Z,28.8662,-88.0563,1.8,19.0,11111222
BP,ioos:station:wmo:42374:1,2021-03-04T00:50:00Z,28.8662,-88.0563,1.9,19.0,11111222
BP,ioos:station:wmo:42374:1,2021-03-04T01:10:00Z,28.8662,-88.0563,1.9,19.0,11111222
BP,ioos:station:wmo:42374:1,2021-03-04T01:30:00Z,28.8662,-88.0563,1.9,18.9,11111222
BP,ioos:station:wmo:42374:1,2021-03-04T01:50:00Z,28.8662,-88.0563,2.2,18.9,11111222
BP,ioos:station:wmo:42374:1,2021-03-04T02:10:00Z,28.8662,-88.0563,2.0,18.9,11111222
BP,ioos:station:wmo:42374:1,2021-03-04T02:30:00Z,28.8662,-88.0563,1.9,18.9,11111222
BP,ioos:station:wmo:42374:1,2021-03-04T02:50:00Z,28.8662,-88.0563,1.8,18.9,11111222
BP,ioos:station:wmo:42374:1,2021-03-04T03:10:00Z,28.8662,-88.0563,1.9,18.9,11111222
BP,ioos:station:wmo:42374:1,2021-03-04T03:30:00Z,28.8662,-88.0563,1.9,19.0,11111222
BP,ioos:station:wmo:42374:1,2021-03-04T03:50:00Z,28.8662,-88.0563,1.9,19.0,11111222
BP,ioos:station:wmo:42374:1,2021-03-04T04:10:00Z,28.8662,-88.0563,1.8,19.0,11111222
BP,ioos:station:wmo:42374:1,2021-03-04T04:30:00Z,28.8662,-88.0563,1.8,19.0,11111222
BP,ioos:station:wmo:42374:1,2021-03-04T04:50:00Z,28.8662,-88.0563,1.9,19.0,11111222
BP,ioos:station:wmo:42374:1,2021-03-04T05:10:00Z,28.8662,-88.0563,1.9,19.0,11111222
BP,ioos:station:wmo:42374:1,2021-03-04T05:30:00Z,28.8662,-88.0563,1.8,19.0,11111222
BP,ioos:station:wmo:42374:1,2021-03-04T05:50:00Z,28.8662,-88.0563,1.8,19.0,11111222
BP,ioos:station:wmo:42374:1,2021-03-04T06:10:00Z,28.8662,-88.0563,1.8,19.0,11111222
BP,ioos:station:wmo:42374:1,2021-03-04T06:30:00Z,28.8662,-88.0563,1.9,19.0,11111222
BP,ioos:station:wmo:42374:1,2021-03-04T06:50:00Z,28.8662,-88.0563,1.9,19.0,11111222
BP,ioos:station:wmo:42374:1,2021-03-04T07:10:00Z,28.8662,-88.0563,1.8,19.0,11111222
BP,ioos:station:wmo:42374:1,2021-03-04T07:30:00Z,28.8662,-88.0563,1.9,19.0,11111222
BP,ioos:station:wmo:42374:1,2021-03-04T07:50:00Z,28.8662,-88.0563,1.8,19.0,11111222
BP,ioos:station:wmo:42374:1,2021-03-04T08:10:00Z,28.8662,-88.0563,1.9,19.1,11111222
BP,ioos:station:wmo:42374:1,2021-03-04T08:30:00Z,28.8662,-88.0563,1.9,19.1,11111222
BP,ioos:station:wmo:42374:1,2021-03-04T08:50:00Z,28.8662,-88.0563,1.7,19.1,11111222
BP,ioos:station:wmo:42374:1,2021-03-04T09:10:00Z,28.8662,-88.0563,1.9,19.2,11111222
BP,ioos:station:wmo:42374:1,2021-03-04T09:30:00Z,28.8662,-88.0563,2.0,19.2,11111222
BP,ioos:station:wmo:42374:1,2021-03-04T09:50:00Z,28.8662,-88.0563,1.9,19.2,11111222
BP,ioos:station:wmo:42374:1,2021-03-04T10:10:00Z,28.8662,-88.0563,1.7,19.1,11111222
BP,ioos:station:wmo:42374:1,2021-03-04T10:30:00Z,28.8662,-88.0563,1.8,19.1,11111222
BP,ioos:station:wmo:42374:1,2021-03-04T10:50:00Z,28.8662,-88.0563,1.9,19.1,11111222
BP,ioos:station:wmo:42374:1,2021-03-04T11:10:00Z,28.8662,-88.0563,1.9,19.3,11111222
BP,ioos:station:wmo:42374:1,2021-03-04T11:30:00Z,28.8662,-88.0563,1.9,19.3,11111222
BP,ioos:station:wmo:42374:1,2021-03-04T11:50:00Z,28.8662,-88.0563,1.9,19.4,11111222
BP,ioos:station:wmo:42374:1,2021-03-04T12:10:00Z,28.8662,-88.0563,1.8,19.4,11111222
BP,ioos:station:wmo:42374:1,2021-03-04T12:30:00Z,28.8662,-88.0563,1.8,19.4,11111222
BP,ioos:station:wmo:42374:1,2021-03-04T12:50:00Z,28.8662,-88.0563,2.0,19.4,11111222
BP,ioos:station:wmo:42374:1,2021-03-04T13:10:00Z,28.8662,-88.0563,2.0,19.4,11111222
BP,ioos:station:wmo:42374:1,2021-03-04T13:30:00Z,28.8662,-88.0563,2.0,19.4,11111222
BP,ioos:station:wmo:42374:1,2021-03-04T13:50:00Z,28.8662,-88.0563,2.1,19.4,11111222
BP,ioos:station:wmo:42374:1,2021-03-04T14:10:00Z,28.8662,-88.0563,2.0,19.4,11111222
BP,ioos:station:wmo:42374:1,2021-03-04T14:30:00Z,28.8662,-88.0563,2.1,19.4,11111222
BP,ioos:station:wmo:42374:1,2021-03-04T14:50:00Z,28.8662,-88.0563,2.2,19.4,11111222
BP,ioos:station:wmo:42374:1,2021-03-04T15:10:00Z,28.8662,-88.0563,2.1,19.4,11111222
BP,ioos:station:wmo:42374:1,2021-03-04T15:30:00Z,28.8662,-88.0563,1.9,19.5,11111222
BP,ioos:station:wmo:42374:1,2021-03-04T15:50:00Z,28.8662,-88.0563,2.2,19.4,11111222
BP,ioos:station:wmo:42374:1,2021-03-04T16:10:00Z,28.8662,-88.0563,2.0,19.5,11111222
BP,ioos:station:wmo:42374:1,2021-03-04T16:30:00Z,28.8662,-88.0563,2.1,19.5,11111222
BP,ioos:station:wmo:42374:1,2021-03-04T16:50:00Z,28.8662,-88.0563,2.3,19.6,11111222
BP,ioos:station:wmo:42374:1,2021-03-04T17:10:00Z,28.8662,-88.0563,2.5,19.6,11111222
BP,ioos:station:wmo:42374:1,2021-03-04T17:30:00Z,28.8662,-88.0563,2.3,19.6,11111222
BP,ioos:station:wmo:42374:1,2021-03-04T17:50:00Z,28.8662,-88.0563,2.2,19.5,11111222
BP,ioos:station:wmo:42374:1,2021-03-04T18:10:00Z,28.8662,-88.0563,2.1,19.5,11111222
BP,ioos:station:wmo:42374:1,2021-03-04T18:30:00Z,28.8662,-88.0563,2.2,19.4,11111222
BP,ioos:station:wmo:42374:1,2021-03-04T18:50:00Z,28.8662,-88.0563,2.0,19.4,11111222
BP,ioos:station:wmo:42374:1,2021-03-04T19:10:00Z,28.8662,-88.0563,2.0,19.3,11111222
BP,ioos:station:wmo:42374:1,2021-03-04T19:30:00Z,28.8662,-88.0563,2.0,19.3,11111222
BP,ioos:station:wmo:42374:1,2021-03-04T19:50:00Z,28.8662,-88.0563,2.1,19.3,11111222
BP,ioos:station:wmo:42374:1,2021-03-04T20:10:00Z,28.8662,-88.0563,2.0,19.3,11111222
BP,ioos:station:wmo:42374:1,2021-03-04T20:30:00Z,28.8662,-88.0563,1.9,19.3,11111222
BP,ioos:station:wmo:42374:1,2021-03-04T20:50:00Z,28.8662,-88.0563,2.1,19.3,11111222
BP,ioos:station:wmo:42374:1,2021-03-04T21:10:00Z,28.8662,-88.0563,1.9,19.4,11111222
BP,ioos:station:wmo:42374:1,2021-03-04T21:30:00Z,28.8662,-88.0563,1.9,19.4,11111222
BP,ioos:station:wmo:42374:1,2021-03-04T21:50:00Z,28.8662,-88.0563,2.0,19.5,11111222